EZY15MW EGNT-LTBS

Flight info

Callsign EZY15MW
Flight time N/A
Altitude 35000
Route GIRLI P18 GASKO UY250 MAMUL L603 LAMSO DCT EVELI DCT NIGUG DCT TIVUN DCT ESAMA DCT OSBIT DCT TENLO DCT LAMSI DCT SITNI DCT SASAL DCT SOGMO DCT BABIT DCT KOTUS DCT OKLOP DCT NISVA DCT USALI DCT OTKOK DCT RODIP UN131 DUGLA UT350 NEXAM
Aircraft A320/M-SDE2E3FGHIJ1RWXYZ/LB1

Departure

Time 2026-04-27 14:59
Airport Newcastle International Airport (EGNT)

Arrival

Time N/A
Airport Dalaman International Airport (LTBS)
Time Latitude Longitude Altitude Speed Heading
2026-04-27 14:33 55.03658 -1.70647 267 ft 0 kts 349°
2026-04-27 14:33 55.03660 -1.70648 268 ft 0 kts 349°
2026-04-27 14:33 55.03659 -1.70648 267 ft 0 kts 349°
2026-04-27 14:36 55.03655 -1.70647 267 ft 3 kts 349°
2026-04-27 14:36 55.03638 -1.70641 267 ft 4 kts 349°
2026-04-27 14:36 55.03617 -1.70635 267 ft 4 kts 342°
2026-04-27 14:36 55.03595 -1.70612 267 ft 4 kts 297°
2026-04-27 14:37 55.03592 -1.70573 267 ft 4 kts 264°
2026-04-27 14:37 55.03593 -1.70554 267 ft 0 kts 264°
2026-04-27 14:38 55.03591 -1.70578 267 ft 4 kts 258°
2026-04-27 14:38 55.03569 -1.70636 267 ft 8 kts 229°
2026-04-27 14:38 55.03534 -1.70724 267 ft 9 kts 210°
2026-04-27 14:38 55.03490 -1.70707 268 ft 0 kts 120°
2026-04-27 14:56 55.03485 -1.70691 268 ft 4 kts 120°
2026-04-27 14:56 55.03457 -1.70650 267 ft 8 kts 161°
2026-04-27 14:57 55.03403 -1.70597 267 ft 11 kts 130°
2026-04-27 14:57 55.03400 -1.70458 266 ft 14 kts 63°
2026-04-27 14:57 55.03441 -1.70305 265 ft 11 kts 65°
2026-04-27 14:57 55.03445 -1.70291 265 ft 2 kts 65°
2026-04-27 14:58 55.03454 -1.70258 265 ft 4 kts 65°
2026-04-27 14:58 55.03520 -1.70013 262 ft 56 kts 64°
2026-04-27 14:58 55.03780 -1.69032 253 ft 119 kts 65°
2026-04-27 14:58 55.04184 -1.67507 488 ft 147 kts 64°
2026-04-27 14:59 55.04613 -1.65893 1246 ft 146 kts 61°
2026-04-27 14:59 55.05048 -1.64253 1712 ft 156 kts 61°
2026-04-27 14:59 55.05539 -1.62415 1930 ft 178 kts 61°
2026-04-27 14:59 55.06095 -1.60330 2176 ft 201 kts 62°
2026-04-27 15:00 55.06629 -1.58012 2770 ft 211 kts 77°
2026-04-27 15:00 55.06436 -1.55443 3386 ft 224 kts 115°
2026-04-27 15:00 55.05311 -1.53469 3853 ft 243 kts 157°
2026-04-27 15:00 55.03610 -1.52864 4272 ft 262 kts 176°
2026-04-27 15:01 55.01716 -1.52801 4789 ft 277 kts 182°
2026-04-27 15:01 54.99776 -1.52905 5551 ft 282 kts 183°
2026-04-27 15:01 54.97831 -1.53452 6298 ft 285 kts 198°
2026-04-27 15:01 54.96002 -1.54790 7084 ft 286 kts 211°
2026-04-27 15:02 54.94299 -1.56596 7803 ft 289 kts 213°
2026-04-27 15:02 54.92587 -1.58385 8541 ft 292 kts 212°
2026-04-27 15:02 54.90806 -1.60212 9309 ft 295 kts 212°
2026-04-27 15:02 54.89027 -1.62026 10071 ft 298 kts 212°
2026-04-27 15:03 54.87182 -1.63907 10344 ft 320 kts 212°
2026-04-27 15:03 54.85197 -1.65937 10516 ft 340 kts 212°
2026-04-27 15:03 54.83137 -1.68048 11031 ft 348 kts 212°
2026-04-27 15:03 54.81032 -1.70203 11655 ft 352 kts 212°
2026-04-27 15:04 54.78910 -1.72377 12292 ft 356 kts 212°
2026-04-27 15:04 54.76768 -1.74567 12939 ft 360 kts 213°
2026-04-27 15:04 54.74599 -1.76781 13553 ft 364 kts 213°
2026-04-27 15:04 54.72417 -1.78947 14140 ft 369 kts 209°
2026-04-27 15:05 54.70042 -1.80568 14663 ft 376 kts 198°
2026-04-27 15:05 54.67467 -1.81497 15216 ft 380 kts 192°
2026-04-27 15:05 54.64817 -1.82320 15781 ft 384 kts 192°
2026-04-27 15:05 54.62180 -1.83152 16313 ft 387 kts 193°
2026-04-27 15:06 54.59553 -1.83987 16847 ft 390 kts 193°
2026-04-27 15:06 54.56871 -1.84837 17374 ft 394 kts 193°
2026-04-27 15:06 54.54164 -1.85691 17898 ft 397 kts 193°
2026-04-27 15:06 54.51439 -1.86547 18414 ft 400 kts 193°
2026-04-27 15:07 54.48688 -1.87407 18876 ft 404 kts 193°
2026-04-27 15:07 54.45906 -1.88280 19283 ft 408 kts 193°
2026-04-27 15:07 54.43097 -1.89165 19679 ft 412 kts 194°
2026-04-27 15:07 54.40259 -1.90060 20074 ft 417 kts 194°
2026-04-27 15:08 54.37395 -1.90957 20463 ft 421 kts 194°
2026-04-27 15:08 54.34493 -1.91864 20844 ft 425 kts 194°
2026-04-27 15:08 54.31570 -1.92778 21201 ft 430 kts 194°
2026-04-27 15:08 54.28613 -1.93676 21565 ft 435 kts 192°
2026-04-27 15:09 54.25561 -1.93999 21929 ft 443 kts 181°
2026-04-27 15:09 54.22475 -1.93413 22267 ft 450 kts 169°
2026-04-27 15:09 54.19455 -1.91909 22632 ft 455 kts 158°
2026-04-27 15:09 54.16595 -1.89555 22981 ft 459 kts 150°
2026-04-27 15:10 54.13808 -1.86834 23320 ft 463 kts 148°
2026-04-27 15:10 54.11050 -1.83971 23671 ft 466 kts 147°
2026-04-27 15:10 54.08291 -1.81017 23980 ft 470 kts 146°
2026-04-27 15:10 54.05520 -1.78034 24307 ft 473 kts 146°
2026-04-27 15:11 54.02759 -1.75088 24619 ft 475 kts 147°
2026-04-27 15:11 53.99905 -1.72089 24945 ft 477 kts 147°
2026-04-27 15:11 53.97101 -1.69180 25266 ft 479 kts 148°
2026-04-27 15:11 53.94206 -1.66206 25600 ft 481 kts 148°
2026-04-27 15:12 53.91330 -1.63269 25907 ft 483 kts 148°
2026-04-27 15:12 53.88447 -1.60336 26218 ft 485 kts 148°
2026-04-27 15:12 53.85548 -1.57388 26520 ft 487 kts 148°
2026-04-27 15:12 53.82637 -1.54419 26823 ft 489 kts 148°
2026-04-27 15:13 53.79721 -1.51436 27115 ft 491 kts 148°
2026-04-27 15:13 53.76821 -1.48468 27417 ft 493 kts 148°
2026-04-27 15:13 53.73851 -1.45431 27710 ft 495 kts 148°
2026-04-27 15:13 53.70940 -1.42459 27989 ft 497 kts 148°
2026-04-27 15:14 53.67967 -1.39431 28274 ft 499 kts 148°
2026-04-27 15:14 53.64988 -1.36413 28548 ft 501 kts 149°
2026-04-27 15:14 53.61945 -1.33531 28811 ft 503 kts 155°
2026-04-27 15:14 53.58695 -1.31326 29060 ft 503 kts 164°
2026-04-27 15:15 53.55303 -1.29893 29309 ft 503 kts 173°
2026-04-27 15:15 53.51840 -1.29228 29550 ft 501 kts 180°
2026-04-27 15:15 53.48376 -1.28358 29777 ft 508 kts 166°
2026-04-27 15:15 53.45114 -1.26050 29986 ft 512 kts 148°
2026-04-27 15:16 53.42314 -1.22373 30209 ft 511 kts 130°
2026-04-27 15:16 53.40212 -1.17632 30448 ft 504 kts 114°
2026-04-27 15:16 53.38948 -1.12234 30717 ft 494 kts 99°
2026-04-27 15:16 53.38035 -1.06692 30995 ft 494 kts 101°
2026-04-27 15:17 53.37047 -1.01174 31290 ft 494 kts 102°
2026-04-27 15:17 53.36011 -0.95691 31600 ft 493 kts 103°
2026-04-27 15:17 53.34955 -0.90233 31915 ft 492 kts 103°
2026-04-27 15:17 53.33903 -0.84800 32221 ft 491 kts 103°
2026-04-27 15:18 53.32865 -0.79368 32517 ft 490 kts 103°
2026-04-27 15:18 53.31840 -0.73952 32818 ft 489 kts 103°
2026-04-27 15:18 53.30825 -0.68525 33113 ft 488 kts 103°
2026-04-27 15:18 53.29822 -0.63120 33419 ft 487 kts 103°
2026-04-27 15:19 53.28821 -0.57721 33711 ft 486 kts 104°
2026-04-27 15:19 53.27814 -0.52331 33992 ft 485 kts 104°
2026-04-27 15:19 53.26803 -0.46967 34275 ft 484 kts 104°
2026-04-27 15:19 53.25786 -0.41606 34512 ft 484 kts 104°
2026-04-27 15:20 53.24765 -0.36258 34737 ft 483 kts 105°
2026-04-27 15:20 53.23739 -0.30901 34893 ft 483 kts 105°
2026-04-27 15:20 53.21699 -0.20268 34931 ft 480 kts 105°
2026-04-27 15:21 53.19662 -0.09673 34932 ft 480 kts 105°
2026-04-27 15:21 53.17615 0.00913 34932 ft 480 kts 105°
2026-04-27 15:22 53.15562 0.11484 34933 ft 479 kts 105°
2026-04-27 15:22 53.13501 0.22046 34941 ft 479 kts 106°
2026-04-27 15:23 53.11424 0.32595 34947 ft 480 kts 106°
2026-04-27 15:23 53.09337 0.43132 34956 ft 479 kts 107°
2026-04-27 15:24 53.07243 0.53655 34951 ft 479 kts 107°
2026-04-27 15:24 53.05158 0.64095 34950 ft 479 kts 107°
2026-04-27 15:25 53.03045 0.74579 34948 ft 479 kts 107°
2026-04-27 15:25 53.02250 0.78501 34941 ft 479 kts 107°
2026-04-27 15:26 53.01558 0.81971 34901 ft 459 kts 106°
2026-04-27 15:26 53.00920 0.85327 34850 ft 445 kts 105°
2026-04-27 15:26 52.99953 0.89695 34788 ft 429 kts 114°
2026-04-27 15:26 52.99117 0.92716 34687 ft 422 kts 116°
2026-04-27 15:27 52.97672 0.96815 34381 ft 413 kts 121°
2026-04-27 15:27 52.96199 1.00843 34180 ft 405 kts 123°
2026-04-27 15:27 52.94739 1.04795 33767 ft 400 kts 120°
2026-04-27 15:27 52.93343 1.08729 33614 ft 390 kts 121°
2026-04-27 15:28 52.91983 1.12525 33639 ft 374 kts 121°
2026-04-27 15:28 52.90694 1.16158 33738 ft 358 kts 120°
2026-04-27 15:28 52.89492 1.19655 33825 ft 341 kts 119°
2026-04-27 15:28 52.88389 1.23037 33890 ft 326 kts 118°
2026-04-27 15:29 52.87398 1.26316 33923 ft 311 kts 115°
2026-04-27 15:29 52.86378 1.29411 33455 ft 311 kts 124°
2026-04-27 15:29 52.85214 1.32599 32484 ft 334 kts 121°
2026-04-27 15:29 52.83994 1.36019 31580 ft 353 kts 121°
2026-04-27 15:30 52.82569 1.39321 31111 ft 351 kts 139°
2026-04-27 15:30 52.80711 1.41837 30794 ft 343 kts 151°
2026-04-27 15:30 52.78876 1.43742 27124 ft 224 kts 166°
2026-04-27 15:30 52.77990 1.47378 19295 ft 552 kts 90°
2026-04-27 15:31 52.78292 1.51356 25864 ft 331 kts 80°
2026-04-27 15:31 52.78584 1.54955 22258 ft 335 kts 81°
2026-04-27 15:31 52.79070 1.59944 16640 ft 527 kts 78°
2026-04-27 15:31 52.79742 1.65315 19138 ft 405 kts 76°
2026-04-27 15:32 52.80315 1.69270 22146 ft 305 kts 74°
2026-04-27 15:32 52.80843 1.72637 22103 ft 310 kts 73°
2026-04-27 15:32 52.81073 1.76130 21989 ft 300 kts 99°
2026-04-27 15:32 52.80470 1.79353 22132 ft 297 kts 119°
2026-04-27 15:33 52.79524 1.82521 22508 ft 319 kts 121°
2026-04-27 15:33 52.78469 1.85876 22754 ft 339 kts 122°
2026-04-27 15:33 52.77342 1.89420 22910 ft 360 kts 122°
2026-04-27 15:33 52.76136 1.93174 23056 ft 380 kts 122°
2026-04-27 15:34 52.75612 1.94810 23111 ft 388 kts 121°